Dewpoint
58 58 57 55 54 53 52 51 51 51 50 42 41 47 40 33 33 38 37 41 42 36 34 46 40 33 32 32 30 30 31 30 28 25 22 22 23 24 27 28 27 30 32 31 28 13 15 11 10 16 14 15 13 17 13 13 11 18 22 15 14 56 24 22 34 35 32 25 19 16 16 8 6 7 7 3 1 1 1 8 21 12 22 24 28 35 33
58 58 57 55 54 53 52 52 52 51 50 48 47 43 38 36 36 37 40 43 41 32 31 32 33 34 33 32 30 33 34 33 27 25 22 25 25 25 25 22 27 29 29 30 28 23 20 17 12 16 18 12 22 25 31 33 33 20 25 24 18 18 24 25 28 30 32 28 27 28 25 15 14 7 11 7 7 9 7 14 24 10 20 25 25 26 27
59 58 57 55 54 53 52 52 52 51 51 50 47 39 38 39 40 39 41 44 37 30 31 32 29 30 28 28 29 31 33 30 26 25 22 25 27 27 27 27 27 28 28 29 30 29 17 24 19 19 21 18 23 31 35 35 35 43 38 58 24 17 27 28 16 19 21 20 21 22 23 21 18 17 11 16 8 15 15 15 21 14 33 36 31 29 34
59 58 57 55 54 53 53 52 52 51 50 50 45 42 43 40 37 40 40 39 37 36 36 32 30 31 31 30 31 32 28 27 27 26 23 26 26 27 29 28 33 32 30 31 29 29 29 27 31 26 20 21 22 29 32 33 38 55 64 53 39 32 36 35 37 32 29 29 30 26 36 19 11 12 16 10 9 10 20 20 15 13 30 27 35 28 30
59 58 57 55 54 53 52 53 52 51 50 50 46 46 44 45 41 41 40 40 39 36 37 34 32 31 34 32 35 28 27 29 26 25 25 26 31 31 31 32 35 35 32 34 31 34 36 39 38 38 25 23 22 32 39 44 58 68 61 53 34 35 26 30 32 31 22 21 32 23 26 19 18 18 14 14 11 12 14 8 11 30 12 19 38 45 27
59 58 57 56 54 53 53 52 50 50 50 50 48 43 46 41 45 43 45 40 37 37 38 37 36 36 36 38 36 28 28 30 32 27 25 22 27 29 32 37 39 38 36 32 30 39 40 40 41 39 38 36 36 23 25 28 55 41 25 43 31 30 24 25 24 23 26 25 23 22 19 18 19 16 14 14 14 13 16 21 21 22 17 13 31 38 26
59 59 58 57 55 53 53 53 50 49 49 49 47 38 38 39 41 44 44 42 43 43 41 40 38 34 36 43 48 37 35 34 35 36 28 23 25 31 36 40 41 41 42 41 40 41 40 38 43 42 40 39 40 36 34 31 29 22 25 29 40 26 31 27 28 32 26 26 26 24 22 21 19 18 16 14 16 16 17 20 29 22 23 20 24 40 23
60 59 58 57 55 54 54 52 51 50 49 49 46 44 40 42 44 43 44 43 42 42 40 39 36 34 40 40 44 39 36 34 34 33 33 31 24 37 43 42 43 44 42 43 42 42 45 44 41 41 44 38 39 43 38 36 36 36 31 32 35 29 31 50 29 30 29 30 30 25 26 23 22 26 28 30 38 40 40 40 40 37 24 15 17 29 30
60 59 59 57 55 54 53 53 52 50 48 45 46 45 44 45 48 47 44 40 41 47 43 39 38 35 36 36 36 35 36 34 35 36 39 42 43 44 46 48 45 44 41 41 41 41 42 43 41 43 39 41 40 39 39 40 41 41 37 38 40 36 34 34 36 31 28 30 30 29 27 24 24 26 29 35 39 39 40 40 41 37 37 35 21 28 33
60 59 59 57 55 54 53 53 52 50 49 46 47 46 48 45 47 48 44 41 51 41 39 39 37 36 40 39 35 36 35 34 36 35 44 48 46 49 49 48 45 46 42 40 42 42 41 41 42 42 39 39 40 38 38 38 39 43 44 44 38 38 36 33 33 31 33 31 32 31 27 25 25 25 28 34 41 41 41 41 43 43 43 45 45 46 48
60 59 59 57 56 54 53 52 52 53 48 46 47 46 46 44 45 47 45 41 42 41 41 41 38 42 39 36 33 34 33 35 38 35 41 49 49 45 50 48 45 47 42 43 43 44 41 41 41 41 40 39 37 37 37 36 38 38 44 47 47 44 38 36 38 32 33 32 34 35 30 24 25 30 32 40 43 43 42 42 41 42 45 45 49 52 54
60 59 59 57 56 54 53 52 52 52 50 48 48 47 46 46 47 48 45 41 42 43 42 40 40 41 36 33 33 33 34 36 38 41 46 47 50 47 47 44 47 44 45 46 42 42 42 43 42 41 39 37 37 37 37 36 35 40 35 37 39 41 39 36 40 34 34 35 34 32 29 29 32 36 33 42 45 46 46 46 46 43 43 46 51 53 55
60 59 59 57 56 54 54 53 53 53 52 48 48 46 48 47 47 47 46 43 42 41 41 43 45 42 35 34 33 33 35 36 39 46 52 50 48 47 49 48 47 47 46 40 40 41 41 43 41 44 40 37 38 39 38 36 35 34 33 36 36 38 35 41 38 39 37 36 36 26 30 36 40 36 36 43 41 45 45 46 48 48 45 44 46 50 54
60 59 59 57 56 55 54 54 53 53 53 51 47 47 48 47 46 47 47 46 46 48 47 44 43 38 36 34 33 34 35 35 38 41 44 49 50 49 48 43 41 42 39 42 45 43 43 42 38 38 38 38 39 38 38 35 34 34 32 34 36 37 41 35 30 39 31 33 38 31 40 34 36 38 39 40 33 41 45 45 48 50 49 47 45 47 52
60 59 58 57 56 55 54 53 52 51 53 51 49 47 46 47 48 49 50 47 46 48 46 41 43 37 36 35 34 34 34 34 38 40 41 41 43 53 51 48 42 39 40 39 40 44 41 41 37 35 38 34 32 35 36 36 35 34 34 33 38 40 35 38 31 35 35 31 32 34 30 30 38 41 42 45 40 46 48 48 48 50 51 51 51 51 49
60 59 58 57 56 55 54 53 52 52 53 52 49 47 47 47 48 48 47 46 43 38 40 43 42 38 36 35 35 36 34 34 37 42 42 43 43 42 42 44 43 41 41 45 45 42 43 36 37 35 33 36 37 34 36 34 34 33 32 33 34 39 39 39 30 35 35 36 31 30 29 34 41 42 44 48 49 41 48 48 48 51 52 53 53 53 55
60 59 58 57 56 55 54 54 53 52 53 51 47 46 45 47 48 49 48 46 44 40 43 43 41 39 39 39 37 38 36 35 40 42 41 42 43 45 44 45 46 50 47 46 45 42 38 39 41 38 40 39 36 35 41 36 34 32 34 34 34 36 38 37 36 35 37 36 30 30 38 39 43 43 47 50 52 43 36 37 44 51 54 54 54 54 55
59 59 58 57 56 55 54 54 53 53 53 50 46 45 45 48 49 50 49 46 45 45 46 42 41 40 40 41 39 37 38 40 43 48 45 46 47 44 43 45 44 45 50 44 45 42 40 37 35 35 34 40 37 34 30 35 32 33 33 34 34 35 39 36 33 31 38 38 34 33 40 48 48 45 50 51 53 49 41 40 47 52 56 57 56 56 56
59 59 58 57 56 55 55 54 53 52 53 50 48 46 42 44 46 49 49 48 44 41 42 44 44 43 43 42 42 41 40 39 43 45 44 44 45 42 43 45 48 43 45 46 43 42 38 40 40 37 33 38 35 32 41 34 36 38 39 34 35 39 39 39 40 34 33 35 31 34 41 45 46 48 51 53 46 46 45 49 53 56 58 59 57 56 56
59 59 58 57 56 55 54 54 53 53 53 51 48 44 45 47 47 50 48 45 46 44 44 44 44 42 42 41 40 40 39 38 40 44 42 41 44 43 46 44 47 47 49 45 39 42 37 37 38 39 33 35 40 44 42 44 44 39 40 41 38 39 34 35 36 42 40 40 38 36 31 45 49 51 52 54 49 50 54 56 59 60 60 60 60 58 58
59 58 58 57 56 55 54 54 53 53 53 52 50 46 44 47 45 46 49 48 45 43 42 44 44 43 42 41 41 40 39 37 38 39 42 42 42 46 42 43 44 47 48 48 41 39 38 38 42 40 39 39 44 45 41 41 42 44 44 41 44 45 39 40 45 47 39 40 38 38 44 48 50 52 49 52 54 55 57 58 58 60 61 61 60 59 62
59 58 57 57 56 55 54 54 53 53 53 53 51 47 44 46 50 51 49 49 46 44 45 46 45 43 43 41 40 39 39 38 37 38 36 37 45 45 47 48 47 47 51 51 49 47 48 47 47 42 41 43 46 40 42 39 39 43 47 44 41 44 48 49 41 46 44 40 42 45 49 51 51 52 54 56 58 59 60 59 59 58 59 62 60 60 62
58 58 57 57 56 55 54 54 53 52 52 53 50 45 43 47 48 52 51 47 48 48 47 45 44 44 44 43 41 38 37 37 36 37 37 43 44 49 45 43 44 47 54 53 47 46 47 45 44 45 44 45 43 43 44 43 42 48 44 46 44 47 47 52 46 46 50 50 51 52 52 53 55 56 56 56 56 57 59 59 58 58 59 62 61 62 62
58 57 57 56 56 55 54 54 53 52 52 53 50 45 45 47 49 48 51 48 44 42 41 42 42 37 35 33 33 37 38 36 37 36 42 45 42 45 47 47 44 47 51 50 52 47 48 46 45 46 42 44 47 43 40 41 44 47 48 44 48 49 47 49 44 46 44 41 50 54 54 55 54 54 54 53 55 56 57 59 60 60 62 61 62 62 62
58 57 57 56 55 55 54 53 53 53 53 53 51 50 47 45 48 49 47 44 44 40 38 43 41 37 36 36 33 31 30 33 36 35 41 46 45 43 44 44 44 45 45 45 51 49 50 45 45 45 40 45 45 40 47 45 43 48 44 46 47 44 49 47 48 49 45 47 52 54 55 55 54 54 52 52 52 53 54 57 59 60 63 63 63 64 64
57 57 56 56 55 54 54 53 52 53 53 53 50 46 44 44 49 50 50 49 47 45 42 42 44 45 45 44 40 34 31 30 31 35 35 42 44 44 44 45 43 49 49 51 53 49 47 46 48 46 41 42 48 43 43 46 43 49 45 44 47 46 54 43 48 47 50 53 54 55 56 54 54 53 53 52 52 54 53 52 54 59 62 62 63 63 61
57 57 56 56 55 54 54 53 53 52 53 52 48 47 46 46 47 48 48 49 44 42 43 41 43 44 45 43 45 44 42 30 32 32 32 33 39 42 43 45 43 45 45 44 48 49 49 46 42 41 46 44 49 49 49 44 45 44 43 47 51 53 47 51 48 48 49 49 51 54 48 48 54 53 52 51 52 53 51 52 54 55 60 64 62 62 63
57 56 56 55 54 54 53 53 52 52 52 50 49 49 49 47 48 50 49 49 45 42 41 42 42 43 44 42 44 44 41 30 25 24 25 29 31 32 34 39 45 44 47 46 44 46 46 40 40 48 47 47 44 43 50 49 47 44 45 46 52 50 50 51 48 47 49 53 54 56 54 54 55 52 51 52 52 51 53 55 58 58 59 63 63 63 63
56 56 55 55 54 54 53 53 52 52 51 50 48 46 46 45 45 45 45 46 48 45 43 44 46 45 40 39 42 42 35 29 28 28 29 30 30 32 32 34 40 45 45 45 45 46 44 45 49 42 43 49 45 44 45 41 43 41 47 52 54 54 55 54 53 52 53 53 53 54 52 49 51 52 51 50 53 56 55 57 56 56 55 57 57 58 61
56 55 54 54 54 53 53 53 53 52 51 48 47 46 43 45 45 45 46 46 48 48 43 42 41 42 44 44 43 38 32 32 29 30 31 28 27 31 32 35 38 45 46 46 45 44 47 44 45 43 49 54 45 47 41 42 40 46 53 53 53 54 55 56 55 52 51 53 55 53 52 52 53 52 52 52 56 55 55 55 55 56 55 57 56 55 57
55 55 54 54 53 52 52 52 52 52 50 46 46 42 38 37 42 47 50 49 50 48 46 44 42 44 42 44 43 37 29 33 30 29 28 26 26 26 33 38 43 46 42 45 44 46 47 43 44 44 50 54 54 44 43 40 39 47 52 53 53 53 51 52 55 53 54 55 54 54 54 54 56 52 51 52 50 52 52 53 56 60 59 57 53 53 55
55 54 54 53 53 52 52 52 52 51 50 46 44 43 42 46 48 48 49 49 51 47 43 41 41 41 39 39 38 35 29 31 30 29 31 27 26 29 35 36 41 42 47 46 48 46 44 48 44 46 41 51 51 45 44 42 40 44 52 53 54 53 54 50 49 52 54 53 50 50 50 52 53 50 49 51 52 52 52 53 54 55 57 55 53 53 55
54 54 53 53 52 52 52 52 52 51 51 51 50 50 49 51 51 51 50 49 48 46 46 42 40 42 40 40 39 34 33 29 28 25 32 33 30 34 34 39 39 40 55 46 44 42 45 42 47 41 46 51 45 47 42 40 41 46 52 53 52 52 50 51 50 52 52 52 49 47 47 49 50 52 53 54 54 53 53 53 53 53 52 51 51 54 63
53 53 53 53 53 53 52 52 51 49 47 49 47 47 46 51 50 53 50 51 48 48 46 43 42 39 39 41 37 36 29 26 33 29 30 37 40 33 38 38 42 38 42 40 45 44 45 45 42 45 46 46 49 42 38 42 46 49 53 53 53 52 52 52 52 51 52 53 54 51 50 51 53 54 54 53 53 53 54 53 52 52 51 52 53 63 64
53 53 52 52 52 52 51 50 50 50 46 47 45 48 46 50 52 53 51 50 43 43 42 43 42 40 40 41 36 39 32 25 33 30 28 36 41 35 41 37 40 36 43 43 43 43 43 43 46 43 43 49 42 38 40 42 44 47 50 52 51 51 51 51 51 52 54 55 55 55 57 57 55 55 54 54 55 55 54 54 54 54 53 55 56 64 63
53 53 52 52 52 51 50 50 50 47 45 45 44 50 51 53 52 48 50 51 48 44 42 42 41 39 41 40 37 38 29 28 37 34 31 38 30 36 40 41 34 34 44 39 39 42 40 49 41 38 41 40 41 42 42 44 44 46 49 48 50 48 49 50 51 53 55 56 57 57 58 58 57 56 56 57 57 57 57 56 56 58 59 61 63 62 62
53 52 52 50 50 49 46 46 49 47 42 44 48 56 53 52 49 53 50 48 51 51 45 43 42 42 40 40 43 40 26 28 33 28 36 32 35 42 38 39 35 41 34 36 38 39 40 50 39 37 35 34 39 45 45 44 43 44 46 50 53 55 56 55 56 56 56 57 58 57 57 58 58 57 58 59 59 59 58 57 57 57 58 62 64 63 63
52 50 50 47 46 43 42 44 44 43 46 49 53 49 48 51 45 44 45 43 46 47 45 44 42 43 45 43 40 44 27 32 33 31 34 39 37 35 39 40 40 37 31 35 37 44 42 38 38 35 38 43 43 44 52 53 53 55 54 56 58 58 58 58 58 57 55 54 54 55 57 57 57 58 58 59 59 60 60 59 58 58 61 64 64 63 63
49 49 48 47 45 41 41 40 44 46 45 51 54 47 45 47 44 41 43 42 45 43 45 42 41 43 42 42 42 43 29 35 28 35 33 39 38 35 38 33 40 36 36 32 36 43 34 37 37 34 33 43 50 53 55 57 58 58 59 59 60 59 59 59 59 58 56 56 56 57 57 57 58 59 59 59 60 61 60 60 59 59 61 64 64 63 62
45 43 44 44 45 46 50 48 46 50 51 48 46 45 41 44 42 38 41 39 39 43 43 41 42 42 41 39 40 41 43 30 28 28 37 36 37 37 36 36 41 35 35 31 36 38 35 34 34 34 33 45 52 56 56 58 59 59 60 60 60 59 59 59 59 59 59 59 59 60 60 61 61 61 61 61 61 61 61 60 60 59 62 63 64 63 63
43 42 44 44 48 51 48 52 50 51 48 44 43 44 42 39 42 42 38 36 36 38 40 39 39 38 41 40 41 39 44 42 44 39 40 35 41 40 32 32 38 33 34 32 39 36 35 34 34 31 31 47 52 55 59 59 60 60 60 59 59 59 59 59 60 60 60 60 60 60 60 62 62 62 63 63 63 62 62 61 61 59 62 63 64 64 63
45 48 50 53 53 51 49 48 47 46 45 45 42 40 40 41 41 39 37 32 33 36 37 36 36 36 37 37 38 38 43 38 44 42 38 36 37 37 36 37 35 33 31 35 41 35 33 31 32 44 51 53 55 57 58 59 58 59 59 59 60 59 60 60 59 60 61 61 60 60 60 61 62 62 63 63 63 63 63 62 62 61 60 61 63 63 63
51 52 51 51 47 47 46 42 44 45 37 39 38 34 38 36 36 35 36 36 36 34 40 34 38 39 37 35 36 39 42 43 39 42 39 37 38 39 37 35 32 28 34 42 36 34 31 31 36 47 52 54 57 57 57 58 58 59 59 60 59 59 59 59 60 60 60 60 60 60 60 61 62 63 64 64 64 64 64 64 63 62 62 61 62 63 64
51 51 49 46 43 43 44 35 46 43 37 36 32 29 34 34 33 35 35 34 34 35 36 32 33 30 31 36 38 43 41 41 48 45 44 41 38 37 34 34 34 40 38 34 34 32 35 47 48 51 54 56 58 58 57 57 57 58 57 57 59 60 60 60 60 60 60 60 60 61 62 62 62 63 64 64 64 63 63 63 64 64 63 62 62 63 64
47 45 43 41 37 42 41 34 43 39 32 34 35 34 33 32 32 33 32 38 34 38 33 32 35 32 38 42 40 45 43 40 46 41 39 39 36 36 35 35 40 36 32 32 34 42 45 47 51 53 54 55 56 57 58 57 58 57 56 58 58 59 60 59 59 59 59 59 61 62 62 62 62 63 63 63 63 64 63 63 64 65 65 64 64 64 65
44 38 37 35 34 38 36 32 33 32 36 35 35 37 34 35 37 35 35 38 37 40 32 36 36 37 39 43 38 40 42 44 36 39 42 40 39 36 38 39 36 35 33 31 33 41 44 47 50 53 55 56 56 57 58 58 58 58 58 56 57 59 58 59 59 59 59 60 60 60 61 61 62 63 63 63 63 63 64 65 65 65 65 64 64 64 65
44 43 40 38 33 36 40 32 33 35 37 37 37 36 35 37 40 38 41 39 36 36 33 38 39 38 39 36 39 38 41 40 39 40 41 40 37 40 42 33 33 32 31 32 40 42 45 50 52 53 55 56 56 56 57 57 58 58 58 57 58 58 59 59 59 59 59 59 60 60 61 62 62 63 64 64 64 63 64 64 64 64 64 64 64 65 66
37 43 40 31 32 34 34 37 40 41 39 39 37 35 35 39 35 35 42 44 46 37 40 43 41 41 40 47 44 39 40 39 38 38 40 41 41 37 38 37 34 36 41 41 41 44 49 51 54 54 56 57 56 56 56 57 57 58 57 57 58 58 59 59 59 59 59 59 60 60 61 62 62 63 64 64 64 64 63 63 64 64 64 64 64 64 65
45 39 32 34 38 36 38 42 39 35 35 35 36 36 34 35 37 41 43 47 45 45 47 46 48 46 43 47 41 38 37 39 34 35 40 40 38 34 36 34 34 34 43 46 46 49 51 53 55 55 55 55 55 57 56 57 57 57 58 57 57 58 58 58 59 59 60 60 61 61 62 62 63 63 63 63 63 63 63 64 65 65 65 65 65 65 65
40 35 40 39 39 37 37 37 35 33 34 35 37 35 39 40 41 41 45 46 46 48 45 45 47 45 46 43 35 38 38 37 38 38 37 37 36 38 36 35 37 38 43 47 50 52 54 54 55 54 55 56 57 56 56 56 58 57 57 57 59 59 59 60 59 59 59 59 60 61 61 61 62 62 61 62 63 64 64 64 64 64 64 65 65 65 65
43 41 39 42 40 37 38 35 34 35 35 38 39 40 42 42 42 41 44 46 48 44 44 41 40 41 36 38 37 30 36 40 36 37 38 38 41 40 38 38 42 45 48 51 53 53 54 54 54 54 54 54 55 55 56 56 56 56 56 56 56 59 59 59 59 59 59 59 59 64 61 61 61 62 63 63 63 63 63 64 65 64 64 64 65 64 63
34 34 38 41 42 41 39 39 40 36 40 40 40 41 42 39 42 43 48 46 46 41 39 41 41 35 34 33 38 39 44 39 38 38 39 41 43 41 41 43 45 48 50 51 51 53 55 54 55 56 55 56 56 54 55 56 56 56 55 55 56 56 54 54 57 59 59 60 60 60 61 62 62 62 63 64 64 62 62 63 64 64 64 64 63 64 65